TimeMDT,TemperatureF,Dew PointF,Humidity,Sea Level PressureIn,VisibilityMPH,Wind Direction,Wind SpeedMPH,Gust SpeedMPH,PrecipitationIn,Events,Conditions,WindDirDegrees,DateUTC
12:15 AM,32.0,15.8,51,30.22,10.0,Calm,Calm,-,N/A,,Clear,0,2013-03-10 07:15:00
12:35 AM,32.0,14.0,48,30.22,10.0,Calm,Calm,-,N/A,,Clear,0,2013-03-10 07:35:00
12:55 AM,32.0,15.8,51,30.22,10.0,North,4.6,-,N/A,,Clear,10,2013-03-10 07:55:00
1:15 AM,28.4,19.4,69,30.23,10.0,Calm,Calm,-,N/A,,Clear,0,2013-03-10 08:15:00
1:35 AM,28.4,17.6,64,30.24,10.0,Calm,Calm,-,N/A,,Clear,0,2013-03-10 08:35:00
1:55 AM,28.4,17.6,64,30.24,10.0,Calm,Calm,-,N/A,,Clear,0,2013-03-10 08:55:00
3:15 AM,26.6,17.6,69,30.25,10.0,Calm,Calm,-,N/A,,Clear,0,2013-03-10 09:15:00
3:35 AM,23.0,17.6,80,30.25,10.0,SE,3.5,-,N/A,,Clear,140,2013-03-10 09:35:00
3:55 AM,23.0,19.4,86,30.26,10.0,Calm,Calm,-,N/A,,Clear,0,2013-03-10 09:55:00
4:15 AM,24.8,17.6,74,30.25,10.0,Calm,Calm,-,N/A,,Clear,0,2013-03-10 10:15:00
4:35 AM,23.0,19.4,86,30.26,10.0,Calm,Calm,-,N/A,,Clear,0,2013-03-10 10:35:00
4:55 AM,23.0,19.4,86,30.26,10.0,Calm,Calm,-,N/A,,Clear,0,2013-03-10 10:55:00
5:15 AM,23.0,19.4,86,30.26,10.0,Calm,Calm,-,N/A,,Clear,0,2013-03-10 11:15:00
6:15 AM,21.2,17.6,86,30.27,10.0,Calm,Calm,-,N/A,,Clear,0,2013-03-10 12:15:00
6:35 AM,21.2,17.6,86,30.27,10.0,Calm,Calm,-,N/A,,Clear,0,2013-03-10 12:35:00
6:55 AM,23.0,17.6,80,30.29,10.0,Calm,Calm,-,N/A,,Clear,0,2013-03-10 12:55:00
7:15 AM,21.2,17.6,86,30.30,10.0,ESE,3.5,-,N/A,,Clear,110,2013-03-10 13:15:00
7:35 AM,21.2,17.6,86,30.30,10.0,ESE,4.6,-,N/A,,Clear,110,2013-03-10 13:35:00
7:55 AM,21.2,17.6,86,30.31,10.0,Calm,Calm,-,N/A,,Clear,0,2013-03-10 13:55:00
8:15 AM,21.2,17.6,86,30.31,10.0,Calm,Calm,-,N/A,,Clear,0,2013-03-10 14:15:00
8:35 AM,23.0,19.4,86,30.32,10.0,WSW,3.5,-,N/A,,Clear,240,2013-03-10 14:35:00
8:55 AM,24.8,19.4,80,30.33,10.0,Calm,Calm,-,N/A,,Clear,0,2013-03-10 14:55:00
9:15 AM,26.6,19.4,74,30.33,10.0,Calm,Calm,-,N/A,,Clear,0,2013-03-10 15:15:00
9:35 AM,30.2,19.4,64,30.33,10.0,ESE,3.5,-,N/A,,Clear,120,2013-03-10 15:35:00
9:55 AM,30.2,17.6,60,30.34,10.0,Calm,Calm,-,N/A,,Clear,0,2013-03-10 15:55:00
10:15 AM,32.0,19.4,60,30.33,10.0,Calm,Calm,-,N/A,,Clear,0,2013-03-10 16:15:00
10:35 AM,32.0,19.4,60,30.33,10.0,West,3.5,-,N/A,,Clear,260,2013-03-10 16:35:00
10:55 AM,32.0,19.4,60,30.32,10.0,West,3.5,-,N/A,,Clear,280,2013-03-10 16:55:00
11:15 AM,33.8,17.6,52,30.32,10.0,Calm,Calm,-,N/A,,Clear,0,2013-03-10 17:15:00
11:35 AM,35.6,17.6,48,30.32,10.0,Calm,Calm,-,N/A,,Clear,0,2013-03-10 17:35:00
11:55 AM,37.4,19.4,48,30.32,10.0,Calm,Calm,-,N/A,,Clear,0,2013-03-10 17:55:00
12:15 PM,37.4,19.4,48,30.32,10.0,SSW,3.5,-,N/A,,Clear,210,2013-03-10 18:15:00
12:35 PM,37.4,17.6,45,30.32,10.0,Calm,Calm,-,N/A,,Clear,0,2013-03-10 18:35:00
12:55 PM,41.0,17.6,39,30.31,10.0,West,4.6,-,N/A,,Clear,270,2013-03-10 18:55:00
1:15 PM,42.8,19.4,39,30.30,10.0,SW,3.5,-,N/A,,Clear,230,2013-03-10 19:15:00
1:35 PM,42.8,19.4,39,30.29,10.0,West,5.8,-,N/A,,Clear,270,2013-03-10 19:35:00
1:55 PM,42.8,17.6,36,30.27,10.0,Calm,Calm,-,N/A,,Clear,0,2013-03-10 19:55:00
2:15 PM,44.6,17.6,34,30.26,10.0,West,3.5,-,N/A,,Clear,280,2013-03-10 20:15:00
2:35 PM,46.4,19.4,34,30.25,10.0,SW,5.8,-,N/A,,Clear,230,2013-03-10 20:35:00
2:55 PM,46.4,17.6,32,30.25,10.0,Calm,Calm,-,N/A,,Clear,0,2013-03-10 20:55:00
3:15 PM,46.4,19.4,34,30.24,10.0,SSW,4.6,-,N/A,,Clear,210,2013-03-10 21:15:00
3:35 PM,48.2,21.2,34,30.24,10.0,WSW,8.1,-,N/A,,Clear,240,2013-03-10 21:35:00
3:55 PM,48.2,19.4,32,30.24,10.0,West,9.2,-,N/A,,Clear,260,2013-03-10 21:55:00
4:15 PM,50.0,19.4,30,30.22,10.0,SW,9.2,-,N/A,,Clear,230,2013-03-10 22:15:00
4:35 PM,50.0,21.2,32,30.22,10.0,WSW,13.8,-,N/A,,Clear,250,2013-03-10 22:35:00
4:55 PM,48.2,21.2,34,30.21,10.0,WSW,11.5,-,N/A,,Clear,240,2013-03-10 22:55:00
5:15 PM,48.2,21.2,34,30.21,10.0,WSW,12.7,-,N/A,,Clear,240,2013-03-10 23:15:00
5:35 PM,46.4,23.0,40,30.22,10.0,SW,13.8,-,N/A,,Clear,230,2013-03-10 23:35:00
5:55 PM,46.4,23.0,40,30.22,10.0,WSW,16.1,-,N/A,,Clear,240,2013-03-10 23:55:00
6:15 PM,44.6,23.0,43,30.22,10.0,SW,12.7,-,N/A,,Clear,230,2013-03-11 00:15:00
6:35 PM,44.6,23.0,43,30.22,10.0,SW,11.5,-,N/A,,Clear,220,2013-03-11 00:35:00
6:55 PM,42.8,23.0,46,30.22,10.0,SW,9.2,-,N/A,,Clear,220,2013-03-11 00:55:00
7:15 PM,41.0,23.0,49,30.23,10.0,SW,10.4,-,N/A,,Clear,230,2013-03-11 01:15:00
7:35 PM,39.2,21.2,49,30.24,10.0,Calm,Calm,-,N/A,,Clear,0,2013-03-11 01:35:00
7:55 PM,39.2,21.2,49,30.26,10.0,Calm,Calm,-,N/A,,Clear,0,2013-03-11 01:55:00
8:15 PM,37.4,23.0,56,30.26,10.0,Calm,Calm,-,N/A,,Clear,0,2013-03-11 02:15:00
8:35 PM,37.4,21.2,52,30.27,10.0,SSW,3.5,-,N/A,,Clear,210,2013-03-11 02:35:00
9:15 PM,35.6,21.2,56,30.27,10.0,East,3.5,-,N/A,,Clear,100,2013-03-11 03:15:00
9:55 PM,33.8,19.4,56,30.28,10.0,ESE,4.6,-,N/A,,Clear,110,2013-03-11 03:55:00
10:15 PM,32.0,21.2,64,30.29,10.0,East,4.6,-,N/A,,Clear,100,2013-03-11 04:15:00
10:35 PM,32.0,19.4,60,30.29,10.0,Calm,Calm,-,N/A,,Clear,0,2013-03-11 04:35:00
10:55 PM,32.0,19.4,60,30.28,10.0,Calm,Calm,-,N/A,,Clear,0,2013-03-11 04:55:00
11:15 PM,30.2,21.2,69,30.29,10.0,ENE,3.5,-,N/A,,Clear,70,2013-03-11 05:15:00
11:35 PM,30.2,21.2,69,30.30,10.0,ESE,5.8,-,N/A,,Clear,110,2013-03-11 05:35:00
11:55 PM,28.4,21.2,74,30.29,10.0,ESE,5.8,-,N/A,,Clear,120,2013-03-11 05:55:00
12:35 AM,28.4,21.2,74,30.29,10.0,Calm,Calm,-,N/A,,Clear,0,2013-03-11 06:35:00
12:55 AM,28.4,21.2,74,30.28,10.0,Calm,Calm,-,N/A,,Clear,0,2013-03-11 06:55:00